Weather History for Louisville Bowman, KY

Change the Weather History Date:

Friday, February 7, 2014

  Actual Average Record
Temperature  
Mean Temperature 13 °F 36 °F  
Max Temperature 21 °F 44 °F 66 °F (2013)
Min Temperature 5 °F 28 °F 0 °F (1978)
Degree Days  
Heating Degree Days 52 29  
Month to date heating degree days 243 205  
Since 1 July heating degree days 3136 2814  
Cooling Degree Days 0 0  
Month to date cooling degree days 0 0  
Year to date cooling degree days 0 0  
Moisture  
Dew Point 4 °F    
Average Humidity 66    
Maximum Humidity 76    
Minimum Humidity 56    
Precipitation  
Precipitation 0.00 in 0.12 in 0.80 in (1965)
Month to date precipitation 2.23 0.83  
Year to date precipitation 4.49 4.21  
Sea Level Pressure  
Sea Level Pressure 30.48 in    
Wind  
Wind Speed 3 mph (North)    
Max Wind Speed 9 mph    
Max Gust Speed 12 mph    
Visibility 10 miles    
Events      
T = Trace of Precipitation, MM = Missing Value Source: NWS Daily Summary

Daily Weather History Graph

Daily Weather History Graph

Search for Another Location

Airport:

Trip Planner

Search our weather history database for the weather conditions in past years. The results will help you decide how hot, cold, wet, or windy it might be!

Date:

Astronomy

Feb. 07, 2014 Rise Set
Actual Time 7:41 AM EST 6:12 PM EST
Civil Twilight 7:14 AM EST 6:39 PM EST
Nautical Twilight 6:43 AM EST 7:11 PM EST
Astronomical Twilight 6:12 AM EST 7:41 PM EST
Moon 12:24 PM EST (2/7) 1:56 AM EST (2/7)
Length of Visible Light 11h 25m
Length of Day
10h 30m
First Quarter, 59% of the Moon is Illuminated
Feb 7
First Quarter
Feb 14
Full
Feb 22
Last Quarter
Mar 1
New
Mar 8
First Quarter

Hourly Weather History & Observations

Time (EST) Temp. Windchill Dew Point Humidity Pressure Visibility Wind Dir Wind Speed Gust Speed Precip Events Conditions
12:53 AM 10.0 °F -1.9 °F 1.9 °F 70% 30.48 in 10.0 mi NW 8.1 mph - N/A   Clear
1:53 AM 8.1 °F 1.4 °F 1.9 °F 76% 30.48 in 10.0 mi NW 3.5 mph - N/A   Clear
2:53 AM 8.1 °F -0.5 °F -0.0 °F 70% 30.50 in 10.0 mi NW 4.6 mph - N/A   Clear
3:53 AM 7.0 °F -1.7 °F -0.0 °F 73% 30.50 in 10.0 mi NNW 4.6 mph - N/A   Clear
4:53 AM 6.1 °F -2.8 °F -0.0 °F 76% 30.49 in 10.0 mi North 4.6 mph - N/A   Clear
5:53 AM 5.0 °F -4.1 °F -2.0 °F 73% 30.50 in 10.0 mi North 4.6 mph - N/A   Clear
6:53 AM 5.0 °F -5.6 °F -4.0 °F 66% 30.51 in 10.0 mi North 5.8 mph - N/A   Clear
7:53 AM 5.0 °F -2.1 °F -4.0 °F 66% 30.52 in 10.0 mi NNE 3.5 mph - N/A   Clear
8:53 AM 7.0 °F 0.1 °F -2.0 °F 67% 30.53 in 10.0 mi North 3.5 mph - N/A   Clear
9:53 AM 8.1 °F - -0.9 °F 67% 30.54 in 10.0 mi Calm Calm - N/A   Clear
10:53 AM 10.9 °F - 1.0 °F 64% 30.56 in 10.0 mi Calm Calm - N/A   Clear
11:53 AM 12.9 °F - 3.0 °F 65% 30.54 in 10.0 mi Calm Calm - N/A   Clear
12:53 PM 16.0 °F - 5.0 °F 62% 30.52 in 10.0 mi Calm Calm - 0.00 in   Clear
1:53 PM 18.0 °F 9.8 °F 6.1 °F 60% 30.50 in 10.0 mi NW 5.8 mph - N/A   Clear
2:53 PM 19.9 °F - 6.1 °F 55% 30.47 in 10.0 mi Calm Calm - N/A   Clear
3:53 PM 21.0 °F 16.2 °F 9.0 °F 60% 30.46 in 10.0 mi NE 3.5 mph - 0.00 in   Clear
4:53 PM 19.9 °F - 9.0 °F 62% 30.45 in 10.0 mi Calm Calm - N/A   Clear
5:53 PM 19.0 °F 13.9 °F 9.0 °F 65% 30.44 in 10.0 mi ENE 3.5 mph - N/A   Clear
6:53 PM 19.0 °F 13.9 °F 9.0 °F 65% 30.45 in 10.0 mi ENE 3.5 mph - N/A   Clear
7:53 PM 18.0 °F 12.7 °F 10.0 °F 71% 30.43 in 10.0 mi ENE 3.5 mph - N/A   Clear
8:53 PM 18.0 °F 12.7 °F 10.9 °F 74% 30.42 in 10.0 mi East 3.5 mph - N/A   Clear
9:53 PM 18.0 °F - 10.9 °F 74% 30.42 in 10.0 mi Calm Calm - N/A   Clear
10:53 PM 18.0 °F - 10.9 °F 74% 30.41 in 10.0 mi Calm Calm - N/A   Clear
11:53 PM 17.1 °F - 10.9 °F 77% 30.40 in 10.0 mi Calm Calm - N/A   Clear